Wainwright, AK

7:14 AM AKST on February 25, 2018 (GMT -0900)
Wainwright

Weather History for PAWI - September, 2013

Change the Weather History Date:

Thursday, September 26, 2013

  Actual Average (PABR) Record (PABR)
Temperature  
Mean Temperature 28 °F -  
Max Temperature 32 °F 30 °F 53 °F (1929)
Min Temperature 24 °F 24 °F 4 °F (1922)
Degree Days  
Heating Degree Days 37    
Moisture  
Dew Point 25 °F    
Average Humidity 85    
Maximum Humidity 93    
Minimum Humidity 75    
Precipitation  
Precipitation 0.00 in - - ()
Sea Level Pressure  
Sea Level Pressure 29.59 in    
Wind  
Wind Speed 10 mph (South)    
Max Wind Speed 17 mph    
Max Gust Speed 23 mph    
Visibility 9 miles    
Events Snow    
Averages and records for this station are not official NWS values.
T = Trace of Precipitation, MM = Missing Value Source: NWS Daily Summary

Daily Weather History Graph

Daily Weather History Graph

Search for Another Location

Airport or City:

Trip Planner

Search our weather history database for the weather conditions in past years. The results will help you decide how hot, cold, wet, or windy it might be!

Date:

Astronomy

Sep. 26, 2013 Rise Set
Actual Time 8:38 AM AKDT 8:21 PM AKDT
Civil Twilight 7:35 AM AKDT 9:24 PM AKDT
Nautical Twilight 6:16 AM AKDT 10:42 PM AKDT
Astronomical Twilight 4:33 AM AKDT 12:21 AM AKDT
Moon 9:30 PM AKDT (9/26) 7:43 PM AKDT (9/26)
Length of Visible Light 13h 49m
Length of Day
11h 43m
Waning Gibbous, 53% of the Moon is Illuminated
Sep 26
Waning Gibbous
Sep 26
Last Quarter
Oct 4
New
Oct 11
First Quarter
Oct 18
Full

Hourly Weather History & Observations

Time (AKDT) Temp. Windchill Dew Point Humidity Pressure Visibility Wind Dir Wind Speed Gust Speed Precip Events Conditions
12:53 AM 32.0 °F 23.6 °F 26.1 °F 79% 29.57 in 10.0 mi WSW 10.4 mph - N/A   Mostly Cloudy
1:27 AM 30.2 °F 18.5 °F 28.4 °F 93% 29.58 in 1.5 mi WSW 17.3 mph 23.0 mph 0.00 in Snow Light Snow
1:39 AM 30.2 °F 21.9 °F 26.6 °F 86% 29.58 in 3.0 mi West 9.2 mph - 0.00 in Snow Light Snow
1:48 AM 32.0 °F 23.6 °F 26.6 °F 80% 29.58 in 9.0 mi WSW 10.4 mph - 0.00 in   Overcast
1:53 AM 32.0 °F 24.2 °F 25.0 °F 75% 29.58 in 10.0 mi WSW 9.2 mph - 0.00 in   Overcast
2:53 AM 27.0 °F 20.5 °F 24.1 °F 89% 29.59 in 10.0 mi South 5.8 mph - N/A   Overcast
3:53 AM 30.0 °F 21.7 °F 26.1 °F 85% 29.59 in 10.0 mi SSW 9.2 mph - N/A   Overcast
4:53 AM 30.0 °F 20.0 °F 27.0 °F 88% 29.60 in 10.0 mi SSW 12.7 mph - N/A   Overcast
5:53 AM 27.0 °F 17.3 °F 24.1 °F 89% 29.60 in 10.0 mi SSW 10.4 mph - N/A   Overcast
6:53 AM 27.0 °F 16.7 °F 24.1 °F 89% 29.61 in 5.0 mi SSW 11.5 mph - 0.00 in Snow Light Snow
7:53 AM 28.0 °F 20.0 °F 25.0 °F 88% 29.60 in 10.0 mi South 8.1 mph - 0.00 in   Overcast
8:53 AM 28.0 °F 20.8 °F 25.0 °F 88% 29.61 in 10.0 mi South 6.9 mph - N/A   Overcast
9:53 AM 28.0 °F 20.8 °F 25.0 °F 88% 29.60 in 10.0 mi South 6.9 mph - N/A   Overcast
10:36 AM 26.6 °F 19.1 °F 23.0 °F 86% 29.60 in 10.0 mi South 6.9 mph - N/A   Scattered Clouds
10:53 AM 28.0 °F 22.8 °F 25.0 °F 88% 29.61 in 10.0 mi South 4.6 mph - N/A   Mostly Cloudy
11:12 AM 28.4 °F 19.7 °F 26.6 °F 93% 29.60 in 10.0 mi South 9.2 mph - N/A   Mostly Cloudy
11:53 AM 28.9 °F 20.4 °F 25.0 °F 85% 29.60 in 10.0 mi South 9.2 mph - N/A   Overcast
12:30 PM 28.4 °F 19.7 °F 26.6 °F 93% 29.60 in 10.0 mi South 9.2 mph - N/A   Overcast
12:53 PM 28.9 °F 19.2 °F 25.0 °F 85% 29.60 in 10.0 mi South 11.5 mph - N/A   Overcast
1:53 PM 28.9 °F 19.8 °F 24.1 °F 82% 29.60 in 10.0 mi South 10.4 mph - N/A   Mostly Cloudy
2:53 PM 30.0 °F 20.5 °F 24.1 °F 79% 29.60 in 10.0 mi SSE 11.5 mph - N/A   Overcast
3:53 PM 28.9 °F 21.1 °F 24.1 °F 82% 29.60 in 10.0 mi SSE 8.1 mph - N/A   Overcast
4:53 PM 28.9 °F 19.8 °F 23.0 °F 78% 29.60 in 10.0 mi SE 10.4 mph - N/A   Mostly Cloudy
5:53 PM 28.0 °F 19.3 °F 21.9 °F 78% 29.59 in 10.0 mi SE 9.2 mph - N/A   Partly Cloudy
6:53 PM 28.0 °F 18.6 °F 21.9 °F 78% 29.58 in 10.0 mi SE 10.4 mph - N/A   Mostly Cloudy
7:53 PM 24.1 °F 18.2 °F 21.0 °F 88% 29.58 in 10.0 mi ESE 4.6 mph - N/A   Overcast
8:53 PM 28.0 °F 18.6 °F 23.0 °F 81% 29.57 in 10.0 mi ESE 10.4 mph - N/A   Overcast
9:53 PM 28.0 °F 19.3 °F 23.0 °F 81% 29.57 in 10.0 mi ESE 9.2 mph - N/A   Overcast
10:53 PM 28.0 °F 19.3 °F 23.0 °F 81% 29.57 in 10.0 mi ESE 9.2 mph - N/A   Overcast
11:53 PM 27.0 °F 18.7 °F 21.9 °F 81% 29.57 in 10.0 mi East 8.1 mph - N/A   Overcast